NOAA NWS Hourly Roundups by Site

Regional Weather Roundup for Omaha, NE

To Select Another Site Choose from List

Select Site:  

000
ASUS43 KOAX 300710
RWRNE

WEATHER ROUNDUP FOR NEBRASKA
NATIONAL WEATHER SERVICE OMAHA NE
200 AM CDT FRI JUL 30 2021

NOTES: SATELLITE DATA IS BEING USED TO AUGMENT CLOUD COVER ABOVE
       12000 FEET.
       "FAIR" INDICATES FEW OR NO CLOUDS BELOW 12,000 FEET WITH NO
       SIGNIFICANT WEATHER AND/OR OBSTRUCTIONS TO VISIBILITY.


NEZ001>004-019>022-054>056-300800-
NEBRASKA PANHANDLE

CITY           SKY/WX    TMP DP  RH WIND       PRES   REMARKS
SCOTTSBLUFF    MOCLDY    73  66  78 E13       30.14R
ALLIANCE       CLOUDY    71  64  78 E13       30.16R HAZE
CHADRON        CLOUDY    74  54  49 E8        30.15R HAZE
GORDON         CLOUDY    68  52  55 E14       30.16S HAZE
KIMBALL        PTCLDY    67  63  87 SE5       30.18S
SIDNEY         PTCLDY    71  67  87 SE15      30.14F
$$

NEZ057>060-069>072-079>082-300800-
SOUTHWEST NEBRASKA

CITY           SKY/WX    TMP DP  RH WIND       PRES   REMARKS
NORTH PLATTE   CLOUDY    77  72  84 E15       30.13R
IMPERIAL       MOCLDY    76  73  91 SE13      30.13R
LEXINGTON      CLOUDY    76  73  88 E10       30.13S
MCCOOK         CLOUDY    77  75  93 E12       30.11S FOG
OGALLALA       CLOUDY    77  74  89 E9        30.14S
$$

NEZ005>010-023>029-035>040-094-300800-
NORTH CENTRAL NEBRASKA

CITY           SKY/WX    TMP DP  RH WIND       PRES   REMARKS
VALENTINE      HAZE      69  57  65 E10       30.15F VSB 1
AINSWORTH      MOCLDY    67  60  79 E7        30.16S HAZE
BROKEN BOW     CLOUDY    74  69  85 E12       30.14F
O`NEILL        PTCLDY    71  65  83 E8        30.15F HAZE
ORD            CLOUDY    73  67  81 SE8       30.12F
THEDFORD       CLOUDY    70  63  78 E9        30.17S
$$

NEZ041-046>049-061>064-073>077-083>087-300800-
SOUTH CENTRAL NEBRASKA

CITY           SKY/WX    TMP DP  RH WIND       PRES   REMARKS
GRAND ISLAND   CLOUDY    77  71  82 E7        30.12S HAZE
AURORA         CLOUDY    75  73  92 E3        30.11S
HASTINGS       CLEAR     76  73  91 E8        30.11F
HEBRON         CLEAR     77  76  94 E3        30.08F FOG
HOLDREGE       CLOUDY    76  74  95 E8        30.12F FOG
KEARNEY        CLOUDY    75  73  93 E9        30.12F
YORK             N/A     73  73 100 NE7       30.09F
$$

NEZ011>018-030>034-042>045-300800-
NORTHEAST NEBRASKA

CITY           SKY/WX    TMP DP  RH WIND       PRES   REMARKS
NORFOLK        MOCLDY    74  66  76 E8        30.11S HAZE
ALBION         MOCLDY    74  69  86 E10       30.13S HAZE
BLAIR          PTCLDY    74  69  83 NE7       30.10S HAZE
COLUMBUS       PTCLDY    73  72  96 NE8       30.11S
FREMONT        MOCLDY    76  70  80 NE8       30.10S
TEKAMAH        PTCLDY    72  68  87 N7        30.09F FOG
WAYNE          MOCLDY    71  66  86 NE7       30.14S HAZE
$$

NEZ050>053-065>068-078-088>093-300800-
SOUTHEAST NEBRASKA

CITY           SKY/WX    TMP DP  RH WIND       PRES   REMARKS
LINCOLN        CLEAR     79  71  76 NE8       30.08S
OMAHA EPPLEY   MOCLDY    77  70  79 NW8       30.08S
BEATRICE       CLEAR     78  75  91 NE6       30.07F
FALLS CITY     PTCLDY    79  76  90 CALM      30.04S
NEBRASKA CITY  CLEAR     76  75  97 NE6       30.08S
PLATTSMOUTH    PTCLDY    76  71  83 NE6       30.08S
$$

NEZ044-045-051>053-067-300800-
OMAHA AREA

CITY           SKY/WX    TMP DP  RH WIND       PRES   REMARKS
OMAHA EPPLEY   MOCLDY    77  70  79 NW8       30.08S
BLAIR          PTCLDY    74  69  83 NE7       30.10S HAZE
FREMONT        MOCLDY    76  70  80 NE8       30.10S
MILLARD        PTCLDY    81  68  65 E7        30.08S
OFFUTT AFB     PTCLDY    78  69  73 NE9       30.09F
PLATTSMOUTH    PTCLDY    76  71  83 NE6       30.08S
WAHOO          PTCLDY    75  74  95 NE5       30.09S
$$


 

View Past Reports for Omaha, NE.

Products Courtesy of NOAA-NWS
NWS Information Parsing Script by Ken True at Saratoga Weather - Script by SE Lincoln Weather.